FENGYUN 1C DEB

Satellite information

Favourite Embed

Satellite Type and Status

DEBRISIN ORBIT

Key statistics

Satellite FENGYUN 1C DEB at a glance.

Uptime

9619

Days in orbit

Revolutions

≈ 15.0

Per day

Orbit

SSO

Sun Synchronous Orbit

Inclination

98.3

Latest

Satellite identification and parameters

Extended collection of information and parameters for FENGYUN 1C DEB.

Object identification

Identified? True

Debris? True

Object name: FENGYUN 1C DEB

International designator: 1999-025AMU

Object number (NORAD): 30613

Object ID (CCSDS): 30613

Country: PEOPLES REPUBLIC OF CHINA (PRC)

Current information (Y/N): Y

RCS size: SMALL

Orbital parameters

Period: 95.86 minutes

Inclination: 98.3053 deg

SMA: 6938.259 km

Apoapsis: 622.231 km

Periapsis: 498.017 km

RAAN: 3.2856 deg

Eccentricy: 0.00895136

Argument of periapsis: 122.7897 deg

Mean anomaly: 238.1989 deg

Mean motion: 15.02197299 rev/day

Mean motion (dot): 0.00052627 rev/day2

B* drag term: 0.0036450755 1/REarth

Two-line elements (TLE)

Creation date: Sept. 8, 2025, 6:18 p.m.

Reference frame: TEME

Reference center: EARTH

Epoch: Sept. 8, 2025, 7:06 a.m. UTC

TLE line 0: 0 FENGYUN 1C DEB

TLE line 1: 1 30613U 99025AMU 25251.29588996 .00052627 00000-0 36451-2 0 9992

TLE line 2: 2 30613 98.3053 3.2856 0089514 122.7897 238.1989 15.02197299979572

Live tracking on map

Real-time ground track for satellite FENGYUN 1C DEB.

In-orbit conjunctions

A list of the most updated potential collisions computed for object FENGYUN 1C DEB.

Target Orbit TCA Probability of collision Miss distance Type
SL-14 R/B LEO 2025-09-01 08:26:36 0.0001230558 451.0 (m) ROCKET BODY
COSMOS 2251 DEB LEO 2024-06-08 05:16:39 0.0003281221 118.0 (m) DEBRIS

Associated space launch

Chinese polar orbiting meteorological satellite

FENGYUN 1C DEB was lifted into orbit during the mission ‘Long March 4B | Feng Yun 1C’, on board a Long March 4B space rocket.

The launch took place on May 10, 1999, 1:33 a.m. from Launch Complex 7.

For more information about the launch, click the button.

Launch to space Long March 4B | Feng Yun 1C
Long March 4B | Feng Yun 1C

Agency: N/A

Status: Launch Successful

Launch date: May 10, 1999, 1:33 a.m. UTC

Rocket: Long March 4B

Launch pad: Launch Complex 7

Location: Taiyuan Satellite Launch Center, People's Republic of China

...

Latest news about this satellite

There are no fresh news available about this satellite. Check back as we update our databases every day.


Newsletter sign-up

Weekly statistics, charts and insights to help you stay on top of the space industry.